STARLINK-31451, 59366

Orbit data source: Space-Track

STARLINK-31451, 59366 is a payload satellite owned by SpaceX/Seattle (US) in LEO that was launched on Sun, 31 Mar 2024 UTC via an FALCON 9 launch vehicle from the Air Force Eastern Test Range (AFETR). Payload-class satellites include a variety of spacecraft equipped with specific instruments for various scientific and technological missions. These include communications satellites like Starlink; space stations such as the ISS; scientific satellites like the Hubble; Earth observation satellites from companies like Planet Labs, Umbra, and HawkEye 360; GPS; miniature CubeSats for education and research; and military/defense satellites.

Loading next visibility...
Identifier
59366, 2024-060U
Orbit
LEO
Country
Flag of USUS
Related business
Manufacturer
SpaceX/Seattle
Mission
Operational spacecraft
Bus & Motor
STARLINK V2M, Unknown motor
Mass
730 kg wet, ~700 kg dry
Launch date (UTC)
2024-03-31 (2 years ago)
Launch vehicle
FALCON 9
Launch site
Air Force Eastern Test Range (AFETR)
Object type
Payload
Rocket body
Debris
Shape & HBR
Unknown shape, 17.7 m
Radar Cross Section
Large (>1 m²)

Expand to show TLE details & history
Last TLE update: 14 hours ago

TLE from 14 hours ago
0 STARLINK-31451
1 59366U 24060U   25289.23082211  .00003437  00000-0  13437-3 0  9994
2 59366  43.0017 355.3471 0000804 272.1989  87.8771 15.27572598 87974
Epoch: 2025-10-16T05:32Z
TLE epoch observation values (Epoch: 2025-10-16T05:32:23.030Z)
Latitude
0.00002°
Longitude
-112.74236°
Altitude
482.826 km
Speed
7.626 km/s
True Right ascension
23h 41m 23s
True Declination
0° 00' 00"
Sunlit
Object was in full shadow at epoch
Visualization orbit readout
Latitude
Unknown
Longitude
Unknown
Altitude
Unknown
Speed
Unknown
Apparent Right ascension
Unknown
Apparent Declination
Unknown
Sunlit
N/A
Visualization observer readout
Local Sidereal Time
14:30:21
Azimuth
Unknown
Elevation
Unknown
Doppler factor
Unknown
Orbital elements
Apogee altitude
485.568 km
Perigee altitude
484.464 km
Semi-major axis
6,863.153 km
Eccentricity
0.00008
Inclination
43.0017°
RAAN
355.3471°
Arg. of periapsis
272.1989°
True anomaly
87.88631°
Mean anomaly
87.8771°
Eccentric anomaly
87.8817°
Mean motion
3.81731 °/min
Orbital period
94.31 mins
BSTAR
0.00013437
Loading maneuver chart data...
Computing Atmospheric mass density...
Loading historical data...
Loading historical data...
Loading historical data...
Loading historical data...
Loading historical data...
Loading historical data...
Loading historical data...

Documentation

Showing up to 5 results
|